Weather in Sherdino

Russia / Komi Republic     63°28′20″N   56°27′09″E
temp.,
°C
wind,
m/s
gust,
m/s
humid.,
%
clouds,
%
prec.,
mm/h
press.,
hPa
HPBL,
m
19 april, mon
mon1900:00−7nnw13915 0.0 103859
03:00−7nw14915 0.0 1038137
06:00−5nnw24715 0.0 1038522
09:00−2nnw23545 0.0 1038983
12:00+1wnw24489 0.0 10361246
15:00+2wnw35455 0.0 10341347
18:000wsw23688 0.0 103346
21:00−1wsw31072100 0.0 1032239
20 april, tue
tue2000:00−1w31172100 0.0 1031345
03:00−1w31075100 0.0 1030332
06:00+1w4116986 0.0 1030415
09:00+5wnw585671 0.0 1029799
12:00+7wnw57529 0.0 10291170
15:00+8nw38585 0.0 10281254
18:00+4wnw11835 0.0 102822
21:000wnw11955 0.0 103011
21 april, wed
wed2100:00−1nw11967 0.0 103015
03:00−1nw119711 0.0 103112
06:00+3se00845 0.0 1031103
09:00+7s12685 0.0 1031565
12:00+9s23565 0.0 1030951
15:00+10s345156 0.0 10281180
18:00+8s376568 0.0 1028238
21:00+6se31173100 0.0 1027255
22 april, thu
thu2200:00+5sse41278100 0.0 1026351
03:00+4sse41378100 0.0 1025406
06:00+5sse51567100 0.0 1024675
09:00+9s6135178 0.0 10231135
12:00+9s6135496 0.0 10231358
15:00+8ssw51274100 0.0 10231276
18:00+5ssw51194100 1.2 1024948
21:00+5ssw41097100 2.8 1024984
23 april, fri
fri2300:00+4ssw4897100 0.6 1024887
03:00+4s3990100 0.8 1025527
06:00+4ssw4985100 0.0 1025887
09:00+5s4985100 0.1 1026659
12:00+6s4887100 0.0 1027764
15:00+7s4680100 0.1 1028898
18:00+6s3782100 0.0 1029376
21:00+5sse3888100 0.1 1029298